This demonstration page uses our WeatherBlox Daily Observations layout. Learn more.

Left ArrowRight Arrow

34.74481, -87.66753

Hourly Observations for October 24, 2021

Temp ( °F °C ) Dew Point ( °F °C ) Humidity (%) Winds ( mph kmh ) Pressure ( in mb ) Visibility ( mi km ) Precip ( " mm )
12:53 am 00:53 Clear 59 15 54 12.2 83 83 ESE 5 7 29.99 1016 10 16 0.00 0.00
1:53 am 01:53 Clear 60 15.6 54 12.2 80 80 ESE 6 9 30.00 1016 10 16 0.00 0.00
2:53 am 02:53 Clear 61 16.1 54 12.2 78 78 SE 6 9 30.00 1016 10 16 0.00 0.00
3:53 am 03:53 Clear 60 15.6 53 11.7 78 78 ESE 5 7 30.00 1016 10 16 0.00 0.00
4:53 am 04:53 Clear 60 15.6 53 11.7 78 78 ESE 5 7 30.00 1016 10 16 0.00 0.00
5:53 am 05:53 Clear 59 15 53 11.7 81 81 ESE 5 7 30.01 1016 10 16 0.00 0.00
6:53 am 06:53 Clear 59 15 52 11.1 78 78 ESE 6 9 30.01 1016 10 16 0.00 0.00
7:53 am 07:53 Sunny 61 16.1 54 12.2 78 78 SE 7 11 30.03 1017 10 16 0.00 0.00
8:53 am 08:53 Sunny 66 18.9 54 12.2 65 65 SSE 6 9 30.04 1017 10 16 0.00 0.00
9:53 am 09:53 Sunny 69 20.6 55 12.8 61 61 SE 6 9 30.04 1017 10 16 0.00 0.00
10:53 am 10:53 Sunny 72 22.2 55 12.8 55 55 S 6 9 30.04 1017 10 16 0.00 0.00
11:53 am 11:53 Sunny 75 23.9 55 12.8 50 50 SSW 6 9 30.03 1017 10 16 0.00 0.00
12:53 pm 12:53 Sunny 78 25.6 55 12.8 45 45 SSW 9 15 30.01 1016 10 16 0.00 0.00
1:53 pm 13:53 Sunny 80 26.7 56 13.3 44 44 SSW 12 19 29.97 1015 10 16 0.00 0.00
2:53 pm 14:53 Sunny 80 26.7 56 13.3 44 44 S 17 28 29.96 1015 10 16 0.00 0.00
3:53 pm 15:53 Sunny 80 26.7 57 13.9 45 45 S 10 17 29.96 1014 10 16 0.00 0.00
4:53 pm 16:53 Sunny 77 25 55 12.8 47 47 SSE 13 20 29.95 1014 10 16 0.00 0.00
5:53 pm 17:53 Sunny 72 22.2 55 12.8 55 55 S 8 13 29.96 1015 10 16 0.00 0.00
6:53 pm 18:53 Clear 68 20 55 12.8 63 63 SSE 8 13 29.96 1015 10 16 0.00 0.00
7:53 pm 19:53 Clear 63 17.2 54 12.2 73 73 SE 8 13 29.96 1014 10 16 0.00 0.00
8:53 pm 20:53 Clear 63 17.2 54 12.2 73 73 SSE 6 9 29.96 1014 10 16 0.00 0.00
9:53 pm 21:53 Clear 64 17.8 55 12.8 73 73 SSE 8 13 29.94 1014 10 16 0.00 0.00
10:53 pm 22:53 Clear 64 17.8 55 12.8 73 73 SSE 12 19 29.92 1013 10 16 0.00 0.00
11:53 pm 23:53 Clear 63 17.2 55 12.8 76 76 SSE 7 11 29.91 1013 10 16 0.00 0.00

Powered by AerisWeather